TimeEST,TemperatureF,Dew PointF,Humidity,Sea Level PressureIn,VisibilityMPH,Wind Direction,Wind SpeedMPH,Gust SpeedMPH,PrecipitationIn,Events,Conditions,WindDirDegrees,DateUTC
12:53 AM,45.0,32.0,60,30.09,10.0,Calm,Calm,-,0.00,,Overcast,0,2013-02-03 05:53:00
1:53 AM,43.0,30.0,60,30.06,10.0,SSW,4.6,-,N/A,,Mostly Cloudy,210,2013-02-03 06:53:00
2:53 AM,39.9,28.9,65,30.03,10.0,Calm,Calm,-,N/A,,Clear,0,2013-02-03 07:53:00
3:53 AM,45.0,35.1,68,30.04,10.0,WNW,9.2,-,N/A,,Mostly Cloudy,290,2013-02-03 08:53:00
4:53 AM,44.1,36.0,73,30.02,10.0,West,10.4,-,N/A,,Clear,280,2013-02-03 09:53:00
5:53 AM,43.0,35.1,74,30.03,10.0,West,11.5,-,N/A,,Clear,280,2013-02-03 10:53:00
6:53 AM,43.0,32.0,65,30.06,10.0,West,15.0,21.9,N/A,,Clear,280,2013-02-03 11:53:00
7:53 AM,42.1,33.1,70,30.08,10.0,West,11.5,-,N/A,,Clear,270,2013-02-03 12:53:00
8:53 AM,44.1,32.0,63,30.08,10.0,WNW,10.4,24.2,N/A,,Clear,290,2013-02-03 13:53:00
9:53 AM,46.9,30.0,52,30.07,10.0,WNW,17.3,23.0,N/A,,Clear,300,2013-02-03 14:53:00
10:53 AM,51.1,30.0,44,30.06,10.0,WSW,17.3,23.0,N/A,,Clear,250,2013-02-03 15:53:00
11:53 AM,55.0,30.0,38,30.02,10.0,West,12.7,26.5,N/A,,Clear,260,2013-02-03 16:53:00
12:53 PM,57.9,30.0,35,29.97,10.0,West,18.4,24.2,N/A,,Partly Cloudy,270,2013-02-03 17:53:00
1:53 PM,61.0,28.9,30,29.93,10.0,West,20.7,38.0,N/A,,Mostly Cloudy,280,2013-02-03 18:53:00
2:53 PM,62.1,28.0,28,29.92,10.0,WNW,24.2,29.9,N/A,,Partly Cloudy,290,2013-02-03 19:53:00
3:53 PM,62.1,28.0,28,29.92,10.0,WNW,12.7,24.2,N/A,,Clear,290,2013-02-03 20:53:00
4:53 PM,61.0,28.0,29,29.93,10.0,West,15.0,25.3,N/A,,Clear,280,2013-02-03 21:53:00
5:53 PM,57.9,28.9,33,29.94,10.0,West,15.0,21.9,N/A,,Clear,280,2013-02-03 22:53:00
6:53 PM,55.0,25.0,31,29.97,10.0,West,9.2,-,N/A,,Clear,280,2013-02-03 23:53:00
7:53 PM,53.1,23.0,31,30.00,10.0,WNW,6.9,-,N/A,,Clear,300,2013-02-04 00:53:00
8:53 PM,51.1,24.1,35,30.02,10.0,WNW,8.1,-,N/A,,Clear,300,2013-02-04 01:53:00
9:53 PM,48.9,25.0,39,30.03,10.0,WNW,6.9,-,N/A,,Clear,300,2013-02-04 02:53:00
10:53 PM,46.0,26.1,46,30.04,10.0,WNW,4.6,-,N/A,,Clear,290,2013-02-04 03:53:00
11:53 PM,45.0,26.1,48,30.05,10.0,Calm,Calm,-,N/A,,Clear,0,2013-02-04 04:53:00